Regional Weather Roundup
Issued by NWS

Home | Current Version | Previous Version | Graphics & Text | Print | Product List | Glossary Off
Versions: 1 2 3 4 5 6 7 8 9 10 11 12 13 14 15 16 17 18 19 20 21 22 23 24 25 26 27 28 29 30 31 32 33 34 35 36 37 38 39 40 41 42 43 44 45 46 47 48 49 50

000
ASUS43 KDMX 281307
RWRIA

WEATHER ROUNDUP FOR IOWA
NATIONAL WEATHER SERVICE DES MOINES IA
800 AM CDT FRI AUG 28 2015

NOTE: "FAIR" INDICATES FEW OR NO CLOUDS BELOW 12,000 FEET WITH NO
SIGNIFICANT WEATHER AND/OR OBSTRUCTIONS TO VISIBILITY.

* - THESE STATIONS ARE NOT NWS STATIONS...THUS NOT UNDER NWS
QUALITY CONTROL.  THEY ALSO DO NOT REPORT WEATHER SUCH
AS PRECIPITATION OR FOG.

IAZ001>003-012>014-020>022-031>034-043>046-281400-
   NORTHWEST IOWA

CITY           SKY/WX    TMP DP  RH WIND       PRES   REMARKS
CARROLL *      LGT RAIN  63  63 100 SE25G37   29.84S
CHEROKEE *     RAIN      63  63 100 E8        29.87R
DENISON *      CLOUDY    66  64  94 SE17G25   29.81S
LE MARS *      LGT RAIN  64  64 100 E10G18    29.85S
ORANGE CITY *  DRIZZLE   64  64 100 E10       29.87F
SHELDON *      DRIZZLE   63  63 100 E13G20    29.88F
SIOUX CITY     CLOUDY    66  63  90 E8        29.81S
SPENCER        LGT RAIN  64  61  90 E14       29.90F
STORM LAKE *   LGT RAIN  63  63 100 SE10G18   29.87S
$$

IAZ055>058-069>071-079>083-090>094-281400-
   SOUTHWEST IOWA

CITY           SKY/WX    TMP DP  RH WIND       PRES   REMARKS
ATLANTIC *     CLOUDY    66  64  94 S8G15     29.88R
AUDUBON *      RAIN      63  61  94 SE9G16    29.89R
CLARINDA *     CLOUDY    66  66 100 SE12      29.91R
COUNCIL BLFS * CLOUDY    68  66  94 SE10      29.86R
CRESTON *      CLOUDY    64  63  94 SE16G22   29.94F
HARLAN  *      LGT RAIN  66 N/A N/A S14G21    29.89R
LAMONI         CLOUDY    65  61  87 SE8       29.96F
RED OAK *      CLOUDY    66  66 100 SE12G18   29.87R
SHENANDOAH *   CLOUDY    68  66  94 SE9G16    29.87S
$$

IAZ047>049-059>061-072>074-084-281400-
   CENTRAL IOWA

CITY           SKY/WX    TMP DP  RH WIND       PRES   REMARKS
AMES           LGT RAIN  62  62 100 E9        29.96F
ANKENY *       LGT RAIN  63  63 100 E12G18    29.94F
CHARITON *     CLOUDY    64  61  88 SE9       30.00S
DES MOINES     LGT RAIN  65  61  87 SE15      29.96F
GRINNELL*      LGT RAIN  61  59  94 S5        30.06R
KNOXVILLE *    LGT RAIN  63  61  94 E7        29.99F
MARSHALLTOWN   RAIN      62  60  93 CALM      30.04R FOG
PELLA *        LGT RAIN  61  61 100 SE6       30.02F
PERRY *        HVY RAIN  64  63  94 SE15      29.93R
$$

IAZ004>006-015-016-023>025-035-036-281400-
   NORTH CENTRAL IOWA

CITY           SKY/WX    TMP DP  RH WIND       PRES   REMARKS
ALGONA *       CLOUDY    64  63  94 E10G18    29.94F
CLARION *      CLOUDY    63  63 100 SE20      29.96F FOG
ESTHERVILLE    LGT RAIN  62  62 100 E9        29.94F FOG
FORT DODGE *   CLOUDY    63  59  88 E16G23    29.91F
MASON CITY     HVY RAIN  61  61 100 E7        30.05F FOG
FOREST CITY *  RAIN      61  61 100 E13       29.99F
IOWA FALLS *   RAIN      63  61  94 SE8       30.05R
$$

IAZ007>011-017>019-026>030-037>042-050>054-066-281400-
   NORTHEAST IOWA

CITY           SKY/WX    TMP DP  RH WIND       PRES   REMARKS
CEDAR RAPIDS   CLOUDY    60  60 100 E10       30.04F
CHARLES CITY * RAIN      61  61 100 S5        30.09R
CLINTON *      CLOUDY    61  57  88 SE5       30.13F
DECORAH *      MOSUNNY   61  59  94 S5        30.08R
DUBUQUE        CLOUDY    61  59  93 S7        30.09F
MONTICELLO *   SUNNY     63  59  88 CALM      30.08S
OELWEIN *        N/A    N/A N/A N/A E3        30.08S
WATERLOO       LGT RAIN  61  60  97 E6        30.04F
$$

IAZ064-065-067-068-078-281400-
   EAST CENTRAL IOWA

CITY           SKY/WX    TMP DP  RH WIND       PRES   REMARKS
DAVENPORT      CLOUDY    62  59  90 SE5       30.11F
IOWA CITY      CLOUDY    62  58  86 E10       30.06F
MT. PLEASANT * CLOUDY    63  59  88 SE7       30.08F
MUSCATINE *    SUNNY     63  59  88 CALM      30.09S
QUAD CITIES    CLOUDY    62  58  86 E6        30.10F
$$

IAZ062-063-075>077-085>089-095>099-281400-
   SOUTHEAST IOWA

CITY           SKY/WX    TMP DP  RH WIND       PRES   REMARKS
BURLINGTON     CLOUDY    63  60  90 E5        30.09F
FAIRFIELD *    PTSUNNY   61  57  88 SE8       30.04F
FORT MADISON * SUNNY     63  59  88 SE3       30.10S
KEOKUK *       SUNNY     63  61  94 E5        30.08S
OSKALOOSA *      N/A     61  59  94 SE7       30.02S
CENTERVILLE *  SUNNY     63  61  94 SE10      30.02S
OTTUMWA        CLOUDY    62  60  93 SE10      30.01F
WASHINGTON *     N/A    N/A N/A N/A MISG        N/A
$$

ABBREVIATIONS USED IN REMARKS
   TC - TEMPERATURES IN CELSIUS
  WCI - WIND CHILL INDEX
   HX - HEAT INDEX
  VSB - VISIBILITY
$$




USA.gov is the U.S. government's official web portal to all federal, state and local government web resources and services.